Albany, NY

9:52 PM EDT on October 19, 2019 (GMT -0400)
Albany International

Weather History for KALB - July, 2019

Change the Weather History Date:

Friday, July 26, 2019

  Actual Average Record
Temperature  
Mean Temperature 74 °F 72 °F  
Max Temperature 87 °F 83 °F 96 °F (1963)
Min Temperature 60 °F 62 °F 46 °F (1976)
Degree Days  
Heating Degree Days 0 0  
Month to date heating degree days 0  
Since 1 June heating degree days 52  
Since 1 July heating degree days 0  
Cooling Degree Days 8 7  
Month to date cooling degree days 179  
Year to date cooling degree days 327  
Since 1 June cooling degree days 297  
Growing Degree Days 24 (Base 50)    
Moisture  
Dew Point 57 °F    
Average Humidity 57    
Maximum Humidity 87    
Minimum Humidity 19    
Precipitation  
Precipitation 0.00 in 0.14 in 2.18 in (1979)
Month to date precipitation 3.46  
Year to date precipitation 22.03  
Sea Level Pressure  
Sea Level Pressure 30.25 in    
Wind  
Wind Speed 1 mph (North)    
Max Wind Speed 6 mph    
Max Gust Speed -    
Visibility 10 miles    
Events Fog    
T = Trace of Precipitation, MM = Missing Value Source: NWS Daily Summary

Daily Weather History Graph

Daily Weather History Graph

Search for Another Location

Airport or City:

Astronomy

Jul. 26, 2019 Rise Set
Actual Time 5:40 AM EDT 8:22 PM EDT
Civil Twilight 5:07 AM EDT 8:55 PM EDT
Nautical Twilight 4:26 AM EDT 9:36 PM EDT
Astronomical Twilight 3:39 AM EDT 10:23 PM EDT
Moon 12:55 AM EDT (7/26) 3:03 PM EDT (7/26)
Length of Visible Light 15h 47m
Length of Day
14h 42m
Waning Crescent, 34% of the Moon is Illuminated
Jul 26
Waning Crescent
Jul 31
New
Aug 7
First Quarter
Aug 15
Full
Aug 23
Last Quarter

Hourly Weather History & Observations

Time (EDT) Temp. Heat Index Dew Point Humidity Pressure Visibility Wind Dir Wind Speed Gust Speed Precip Events Conditions
12:51 AM 64.9 °F - 60.1 °F 84% 30.19 in 10.0 mi Calm Calm - N/A   Clear
1:51 AM 63.0 °F - 59.0 °F 87% 30.20 in 10.0 mi NE 3.5 mph - N/A   Clear
2:51 AM 63.0 °F - 59.0 °F 87% 30.22 in 10.0 mi Calm Calm - N/A Fog Patches of Fog
3:51 AM 61.0 °F - 57.0 °F 87% 30.22 in 10.0 mi Calm Calm - N/A Fog Patches of Fog
4:51 AM 61.0 °F - 57.0 °F 87% 30.24 in 10.0 mi Calm Calm - N/A Fog Patches of Fog
5:51 AM 61.0 °F - 57.0 °F 87% 30.26 in 10.0 mi Calm Calm - N/A Fog Patches of Fog
6:51 AM 64.0 °F - 59.0 °F 84% 30.27 in 10.0 mi Calm Calm - N/A   Clear
7:51 AM 68.0 °F - 59.0 °F 73% 30.28 in 10.0 mi Calm Calm - N/A   Clear
8:51 AM 71.1 °F - 60.1 °F 68% 30.29 in 10.0 mi Calm Calm - N/A   Clear
9:51 AM 73.9 °F - 61.0 °F 64% 30.29 in 10.0 mi Calm Calm - N/A   Clear
10:51 AM 78.1 °F - 62.1 °F 58% 30.29 in 10.0 mi NNW 3.5 mph - N/A   Partly Cloudy
11:51 AM 82.0 °F 83.0 °F 62.1 °F 51% 30.28 in 10.0 mi Calm Calm - N/A   Partly Cloudy
12:51 PM 82.9 °F 82.6 °F 57.9 °F 42% 30.27 in 10.0 mi WNW 3.5 mph - N/A   Partly Cloudy
1:51 PM 84.0 °F 82.9 °F 55.0 °F 37% 30.26 in 10.0 mi Variable 5.8 mph - N/A   Scattered Clouds
2:51 PM 87.1 °F - 51.1 °F 29% 30.25 in 10.0 mi Variable 3.5 mph - N/A   Scattered Clouds
3:51 PM 87.1 °F - 50.0 °F 28% 30.24 in 10.0 mi NNW 4.6 mph - N/A   Partly Cloudy
4:51 PM 87.1 °F - 51.1 °F 29% 30.24 in 10.0 mi NNE 5.8 mph - N/A   Partly Cloudy
5:51 PM 87.1 °F - 50.0 °F 28% 30.22 in 10.0 mi Calm Calm - N/A   Partly Cloudy
6:51 PM 84.9 °F - 52.0 °F 32% 30.23 in 10.0 mi Calm Calm - N/A   Partly Cloudy
7:51 PM 82.9 °F 81.9 °F 54.0 °F 37% 30.23 in 10.0 mi Calm Calm - N/A   Partly Cloudy
8:51 PM 73.9 °F - 57.9 °F 57% 30.24 in 10.0 mi Calm Calm - N/A   Partly Cloudy
9:51 PM 72.0 °F - 57.9 °F 61% 30.25 in 10.0 mi Calm Calm - N/A   Partly Cloudy
10:51 PM 70.0 °F - 57.0 °F 63% 30.25 in 10.0 mi Calm Calm - N/A   Partly Cloudy
11:51 PM 68.0 °F - 57.9 °F 70% 30.26 in 10.0 mi Calm Calm - N/A   Partly Cloudy